Weather in De-Kastry

Russia / Khabarovsk Krai     51°28′31″N   140°46′08″E
temp.,
°C
wind,
m/s
gust,
m/s
humid.,
%
clouds,
%
prec.,
mm/h
press.,
hPa
HPBL,
m
27 february, sat
sat2701:00−18wnw359392 0.0 1028147
04:00−19wnw369758 0.0 1029176
07:00−20wnw349998 0.0 1029115
10:00−16nw238062 0.0 1029190
13:00−9w02650 0.0 1027443
16:00−9wsw137229 0.0 1025622
19:00−15s1193100 0.0 102526
22:00−15sse119498 0.0 102220
28 february, sun
sun2801:00−14se1293100 0.0 101960
04:00−12sse2994100 0.4 1014278
07:00−11sw1297100 0.6 101139
10:00−9wnw248695 0.7 1010373
13:00−7nw367996 0.1 1010811
16:00−7nw378298 0.2 1011656
19:00−11wnw239698 0.3 101388
22:00−13nw379488 0.4 1016482
1 march, mon
mon101:00−18wnw4128427 0.0 1017456
04:00−20wnw5138314 0.0 1019489
07:00−19wnw614860 0.0 1020621
10:00−17nw712740 0.0 1022868
13:00−16wnw59720 0.0 1022941
16:00−15w476850 0.0 10231270
19:00−19wsw368939 0.0 1024158
22:00−20wsw269220 0.0 1025204
2 march, tue
tue201:00−23w229350 0.0 102533
04:00−24w228850 0.0 102638
07:00−25w228324 0.0 102837
10:00−21w376311 0.0 1028497
13:00−18w35630 0.0 10271040
16:00−17w346315 0.0 10271207
19:00−21wsw128692 0.0 102820
22:00−23wsw228878 0.0 102920
3 march, wed
wed301:00−24w12890 0.0 102820
04:00−25w22930 0.0 102720
07:00−26wnw22920 0.0 102729
10:00−20wnw24710 0.0 1025275
13:00−15wnw25622 0.0 1023658
16:00−13wsw13641 0.0 1020695
19:00−20s229354 0.0 101953
22:00−20ssw129227 0.0 101720